FENGYUN 1C DEB, 33745

Orbit data source: Space-Track

FENGYUN 1C DEB, 33745 is space debris in SSO originally from a launch on Mon, 10 May 1999 UTC launched from the Taiyaun Space Center, China (TSC). Fengyun 1C debris stems from the Chinese weather satellite Fengyun-1C, which was intentionally destroyed by a Chinese anti-satellite missile in 2007. This event dramatically increased the amount of space debris, with thousands of trackable fragments posing hazards to satellites and human spaceflight. The Fengyun 1C debris cloud has become a focal point in discussions about space sustainability and the need for international regulations to prevent the creation of new debris.

Loading next visibility...
Identifier
33745, 1999-025DJJ
Orbit
SSO
Country
Flag of CNCN / PRC
Related business
Manufacturer
Unknown
Mission
Spacecraft
Bus & Motor
Unknown
Mass
Unknown
Launch date (UTC)
1999-05-10 (27 years ago)
Launch vehicle
Unknown
Launch site
Taiyaun Space Center, China (TSC)
Object type
Payload
Rocket body
Debris
Shape & HBR
Unknown shape, 0.1 m
Radar Cross Section
Small (<0.1 m²)

Expand to show TLE details & history
Last TLE update: 2 days ago

TLE from 2 days ago
0 FENGYUN 1C DEB
1 33745U 99025DJJ 26174.08964638  .00002026  00000-0  89825-3 0  9996
2 33745  99.0996 222.7410 0055421  79.7667 280.9753 14.23429565687379
Epoch: 2026-06-23T02:09Z
TLE epoch observation values (Epoch: 2026-06-23T02:09:05.447Z)
Latitude
-0.00007°
Longitude
-80.7979°
Altitude
809.307 km
Speed
7.452 km/s
True Right ascension
14h 50m 57s
True Declination
0° 00' 00"
Sunlit
Object was in full shadow at epoch
Visualization orbit readout
Latitude
Unknown
Longitude
Unknown
Altitude
Unknown
Speed
Unknown
Apparent Right ascension
Unknown
Apparent Declination
Unknown
Sunlit
N/A
Visualization observer readout
Local Sidereal Time
14:50:33
Azimuth
Unknown
Elevation
Unknown
Doppler factor
Unknown
Orbital elements
Apogee altitude
850.793 km
Perigee altitude
771.108 km
Semi-major axis
7,189.088 km
Eccentricity
0.00554
Inclination
99.0996°
RAAN
222.741°
Arg. of periapsis
79.7667°
True anomaly
280.35103°
Mean anomaly
280.9753°
Eccentric anomaly
280.66324°
Mean motion
3.56068 °/min
Orbital period
101.1 mins
BSTAR
0.00089825
Loading maneuver chart data...
Computing Atmospheric mass density...

Documentation

Showing up to 5 results
|